Flag for Japan Weather past 2 weeks in Sagamihara, Japan

Now
69 °F

Passing clouds.


Feels Like: 69 °F
Forecast: 69 / 76 °F
Wind: 3 mph from North

Location: Yokota Ab

Current Time: Jul 4, 2015 at 1:49:43 AM

Latest Report: Jul 4, 2015 at 12:58 AM


Visibility: 7 mi

Pressure: 29.74 "Hg

Humidity: 80%

Dew point: 63 °F

Location of SagamiharaLocation

Historic Weather in Sagamihara — Graph

°F

Sagamihara temperature yesterday

Maximum temperature yesterday: 73 °F (at 3:58 PM)
Minimum temperature yesterday: 69 °F (at 10:58 PM)
Average temperature yesterday: 70 °F

Past Weeks' High & Low Weather Summary

 TemperatureHumidityPressure
High85 °F (Jun 28, 12:58 PM)100% (Jun 19, 2:58 AM)29.98 "Hg (Jun 19, 2:58 AM)
Low61 °F (Jun 20, 4:58 AM)37% (Jun 28, 11:58 AM)29.31 "Hg (Jul 1, 1:58 PM)
Average70 °F78%29.75 "Hg
* Reported Jun 19 12:01 AM — Jul 4 12:02 AM, Sagamihara, Weather by CustomWeather, © 2015

Note: Actual official high and low records may vary slightly from our data, if they occured in-between our weather recording intervals... More about our weather records

Advertising

Sagamihara weather history for previous 24 hours

 ConditionsComfort  
Time TempWeatherWind HumidityBarometerVisibility
12:02 AM
Sat, Jul 4
70 °FMostly cloudy.5 mph78%29.74 "Hg5 mi
11:58 PM
Fri, Jul 3
70 °FPassing clouds.6 mph80%29.75 "Hg5 mi
10:58 PM69 °FLight rain. Mostly cloudy.1 mph80%29.75 "Hg3 mi
10:00 PM70 °FLight rain. Passing clouds.No wind78%29.78 "Hg6 mi
9:58 PM70 °FLight rain. Passing clouds.No wind79%29.79 "Hg6 mi
8:58 PM70 °FLight rain. Passing clouds.2 mph78%29.78 "Hg3 mi
8:00 PM70 °FPassing clouds.5 mph78%29.75 "Hg8 mi
7:58 PM70 °FPassing clouds.5 mph79%29.75 "Hg7 mi
6:58 PM70 °FOvercast.6 mph78%29.75 "Hg6 mi
6:00 PM72 °FLight rain. Cloudy.5 mph78%29.74 "Hg5 mi
4:58 PM72 °FCloudy.3 mph73%29.71 "Hg10 mi
3:58 PM73 °FBroken clouds.No wind74%29.72 "Hg10 mi
3:04 PM72 °FMore clouds than sun.No wind78%29.74 "Hg10 mi
2:58 PM72 °FLow clouds.No wind78%29.73 "Hg10 mi
1:58 PM72 °FMostly cloudy.6 mph78%29.73 "Hg10 mi
1:02 PM70 °FDrizzle. Low clouds.6 mph83%29.75 "Hg7 mi
12:58 PM70 °FLow clouds.6 mph83%29.74 "Hg6 mi
12:02 PM72 °FLight rain. Mostly cloudy.5 mph78%29.76 "Hg9 mi
11:58 AM71 °FLight rain. Broken clouds.3 mph79%29.75 "Hg8 mi
11:02 AM70 °FLight rain. More clouds than sun.5 mph83%29.76 "Hg9 mi
10:00 AM70 °FMostly cloudy.5 mph78%29.73 "Hg4 mi
9:58 AM70 °FLight rain. Mostly cloudy.6 mph79%29.72 "Hg4 mi
8:58 AM70 °FLight rain. Low clouds.3 mph78%29.75 "Hg1 mi
8:02 AM70 °FHeavy rain. Mostly cloudy.3 mph78%29.77 "Hg1 mi
7:58 AM70 °FHeavy rain. Mostly cloudy.2 mph79%29.78 "Hg1 mi
7:04 AM70 °FRain. Low clouds.5 mph78%29.77 "Hg1 mi
5:58 AM70 °FRain. Mostly cloudy.3 mph83%29.75 "Hg1 mi
5:04 AM70 °FLight rain. Low clouds.1 mph83%29.76 "Hg2 mi
4:04 AM70 °FMostly cloudy.2 mph88%29.74 "Hg3 mi
3:58 AM70 °FLight rain. Low clouds.1 mph88%29.75 "Hg3 mi
3:02 AM70 °FPassing clouds.No wind83%29.74 "Hg6 mi
2:58 AM70 °FPassing clouds.No wind85%29.72 "Hg6 mi
2:04 AM70 °FMostly cloudy.5 mph83%29.70 "Hg5 mi
Weather by CustomWeather, © 2015

See weather overviewHow to use our weather pages